Temp
-7 -7 -7 -7 -7 -7 -7 -7 -7 -7 -7 -7 -7 -7 -7 -7 -7 -7 -7 -8 -8 -8 -8 -8 -8 -8 -8 -8 -8 -8 -8 -8 -8 -8 -7 -7 -7 -7 -7 -7 -7 -7 -7
-7 -7 -7 -7 -7 -7 -7 -7 -7 -7 -7 -7 -7 -7 -7 -7 -7 -8 -8 -8 -8 -8 -8 -8 -8 -8 -8 -8 -8 -8 -8 -8 -8 -8 -7 -7 -7 -7 -6 -7 -7 -7 -8
-7 -7 -7 -7 -7 -7 -7 -7 -7 -7 -7 -7 -7 -7 -7 -7 -8 -8 -8 -8 -8 -8 -8 -8 -9 -9 -9 -8 -8 -8 -8 -8 -8 -7 -7 -7 -7 -7 -7 -7 -7 -8 -8
-7 -7 -7 -7 -7 -7 -7 -8 -8 -7 -7 -7 -7 -7 -7 -7 -8 -8 -8 -8 -8 -8 -9 -9 -9 -9 -9 -8 -8 -8 -8 -8 -7 -7 -7 -7 -7 -7 -7 -7 -8 -8 -8
-8 -7 -8 -7 -7 -7 -7 -8 -8 -7 -7 -7 -7 -7 -8 -8 -8 -8 -8 -8 -9 -9 -9 -9 -9 -9 -9 -9 -8 -8 -8 -8 -7 -7 -7 -7 -7 -7 -7 -7 -8 -8 -8
-8 -7 -8 -7 -7 -7 -7 -7 -7 -7 -7 -7 -7 -8 -8 -8 -8 -8 -8 -9 -9 -9 -9 -9 -9 -9 -9 -9 -8 -8 -8 -8 -8 -8 -7 -7 -7 -7 -7 -7 -7 -8 -8
-8 -8 -8 -8 -7 -8 -8 -7 -8 -8 -7 -8 -8 -8 -8 -8 -8 -8 -9 -9 -9 -9 -9 -9 -9 -9 -9 -9 -8 -8 -8 -8 -8 -8 -8 -8 -7 -7 -7 -7 -8 -8 -8
-8 -8 -8 -8 -8 -8 -8 -8 -8 -8 -8 -8 -8 -8 -8 -8 -9 -9 -9 -9 -9 -9 -9 -9 -9 -9 -9 -9 -9 -8 -8 -8 -8 -8 -8 -8 -8 -8 -8 -8 -8 -8 -8
-9 -8 -8 -8 -8 -8 -8 -8 -8 -8 -8 -8 -8 -8 -8 -8 -9 -9 -9 -9 -9 -9 -9 -9 -9 -9 -9 -9 -9 -8 -8 -8 -8 -8 -8 -8 -8 -8 -8 -8 -8 -8 -8
-9 -9 -8 -8 -8 -8 -8 -8 -8 -8 -8 -8 -8 -8 -8 -9 -9 -9 -9 -9 -9 -9 -9 -9 -9 -9 -9 -9 -9 -9 -9 -9 -9 -9 -9 -8 -8 -8 -8 -8 -8 -8 -8
-9 -9 -9 -9 -9 -8 -8 -8 -8 -8 -9 -8 -8 -8 -8 -8 -9 -9 -9 -9 -9 -9 -9 -9 -9 -9 -9 -9 -9 -9 -9 -9 -9 -9 -9 -9 -9 -9 -8 -8 -8 -8 -8
-9 -9 -9 -9 -9 -9 -9 -8 -8 -8 -9 -8 -8 -8 -8 -8 -8 -9 -9 -9 -9 -9 -10 -10 -9 -9 -9 -9 -9 -9 -9 -9 -9 -9 -9 -9 -9 -9 -9 -9 -9 -9 -9
-10 -10 -9 -9 -9 -9 -9 -9 -9 -9 -9 -9 -8 -8 -8 -8 -9 -9 -9 -9 -9 -9 -9 -9 -9 -9 -9 -9 -9 -9 -9 -9 -9 -9 -9 -9 -9 -9 -9 -9 -9 -9 -9
-10 -10 -9 -9 -9 -9 -9 -9 -9 -9 -9 -9 -9 -8 -9 -9 -9 -9 -8 -8 -9 -9 -9 -9 -9 -9 -9 -9 -9 -10 -9 -9 -9 -9 -9 -9 -9 -9 -9 -9 -9 -9 -9
-10 -10 -10 -10 -9 -9 -9 -9 -9 -9 -9 -9 -9 -9 -9 -9 -9 -9 -9 -9 -9 -9 -9 -9 -9 -9 -9 -9 -9 -10 -10 -9 -9 -10 -10 -10 -10 -10 -10 -10 -10 -9 -10
-11 -10 -10 -10 -10 -9 -10 -10 -10 -9 -9 -9 -9 -9 -9 -9 -9 -9 -9 -9 -9 -9 -9 -9 -9 -9 -9 -10 -10 -10 -10 -10 -10 -10 -10 -10 -10 -10 -10 -10 -10 -10 -10
-11 -11 -10 -10 -10 -10 -10 -10 -10 -10 -10 -10 -10 -9 -9 -10 -9 -9 -9 -9 -9 -9 -9 -9 -9 -9 -10 -10 -10 -10 -10 -10 -10 -10 -10 -10 -10 -10 -10 -10 -10 -10 -10
-12 -12 -11 -10 -10 -10 -10 -10 -10 -10 -10 -10 -10 -10 -10 -10 -10 -10 -10 -10 -10 -10 -10 -10 -10 -10 -10 -10 -10 -10 -10 -10 -10 -10 -11 -10 -10 -10 -10 -10 -10 -10 -10
-12 -12 -12 -11 -11 -10 -10 -10 -10 -10 -10 -10 -10 -10 -10 -10 -10 -10 -10 -10 -9 -10 -10 -10 -10 -10 -10 -10 -10 -10 -10 -11 -11 -11 -11 -11 -11 -11 -11 -11 -11 -10 -10
-11 -11 -12 -11 -11 -11 -11 -11 -10 -10 -10 -10 -10 -10 -10 -10 -11 -10 -10 -10 -10 -10 -10 -10 -11 -11 -10 -10 -11 -11 -11 -11 -11 -10 -11 -11 -11 -11 -11 -11 -11 -11 -11
-10 -12 -11 -11 -11 -11 -11 -11 -11 -11 -11 -11 -11 -11 -11 -10 -10 -10 -11 -11 -10 -10 -10 -10 -10 -11 -11 -10 -11 -11 -11 -11 -11 -10 -10 -10 -11 -11 -11 -11 -11 -11 -11
-11 -11 -11 -11 -11 -11 -11 -11 -11 -11 -11 -11 -11 -11 -11 -11 -11 -11 -11 -11 -11 -11 -11 -11 -11 -11 -11 -11 -11 -11 -11 -11 -11 -11 -11 -11 -11 -11 -11 -11 -11 -11 -11
-11 -12 -11 -12 -12 -12 -11 -11 -11 -11 -11 -11 -11 -11 -11 -11 -11 -11 -11 -11 -12 -12 -12 -12 -11 -11 -11 -11 -11 -11 -11 -12 -12 -12 -11 -12 -12 -12 -12 -12 -12 -12 -12
-11 -11 -12 -12 -12 -12 -12 -12 -12 -12 -12 -12 -12 -12 -12 -12 -12 -12 -12 -12 -12 -12 -12 -12 -12 -12 -12 -12 -12 -12 -12 -12 -12 -12 -12 -12 -12 -12 -12 -12 -12 -12 -12
-11 -10 -12 -12 -12 -12 -12 -12 -12 -12 -12 -12 -12 -12 -12 -12 -12 -12 -12 -12 -12 -12 -12 -12 -13 -13 -12 -13 -13 -12 -12 -12 -12 -12 -13 -13 -13 -13 -13 -13 -13 -12 -12
-12 -11 -10 -11 -12 -11 -12 -12 -13 -13 -12 -12 -11 -12 -12 -12 -12 -12 -12 -12 -12 -12 -12 -13 -13 -13 -13 -13 -13 -12 -12 -12 -12 -11 -11 -12 -13 -13 -13 -13 -13 -13 -12
Height
5858 5859 5861 5862 5863 5863 5865 5866 5867 5869 5870 5871 5872 5873 5874 5874 5874 5874 5874 5874 5873 5873 5872 5871 5870 5869 5868 5867 5866 5865 5865 5864 5863 5861 5859 5857 5855 5853 5850 5847 5845 5842 5840
5857 5858 5859 5860 5862 5863 5864 5865 5867 5869 5870 5871 5872 5873 5873 5874 5874 5874 5874 5874 5874 5873 5872 5871 5870 5868 5867 5866 5866 5865 5864 5863 5862 5860 5858 5855 5853 5850 5848 5845 5843 5840 5838
5855 5857 5858 5859 5861 5862 5863 5865 5866 5868 5869 5871 5872 5872 5873 5873 5873 5873 5874 5873 5873 5872 5872 5871 5869 5868 5867 5866 5865 5864 5864 5862 5861 5859 5856 5853 5851 5849 5846 5844 5842 5840 5838
5852 5854 5856 5858 5860 5861 5862 5864 5866 5867 5869 5870 5871 5872 5872 5872 5873 5873 5873 5873 5872 5872 5871 5870 5869 5868 5866 5865 5864 5864 5863 5861 5859 5857 5855 5852 5849 5846 5844 5841 5839 5838 5836
5850 5852 5854 5855 5857 5859 5861 5863 5865 5867 5868 5869 5870 5871 5871 5871 5871 5872 5872 5872 5871 5870 5870 5869 5868 5867 5865 5864 5863 5862 5861 5860 5858 5856 5854 5851 5848 5845 5843 5840 5838 5836 5834
5848 5849 5852 5854 5856 5858 5860 5862 5864 5866 5867 5868 5868 5869 5870 5870 5870 5871 5871 5871 5870 5869 5869 5868 5867 5866 5864 5863 5862 5861 5859 5858 5857 5855 5853 5850 5847 5844 5842 5839 5837 5835 5832
5844 5846 5849 5851 5853 5855 5858 5860 5862 5864 5865 5866 5867 5867 5868 5869 5869 5869 5869 5869 5869 5868 5867 5867 5866 5864 5863 5862 5861 5859 5858 5857 5855 5853 5851 5849 5846 5844 5840 5838 5836 5833 5831
5840 5842 5846 5848 5851 5853 5856 5859 5861 5863 5864 5864 5865 5866 5866 5867 5867 5868 5868 5868 5867 5867 5866 5865 5864 5863 5862 5860 5859 5858 5857 5855 5853 5851 5850 5847 5845 5842 5839 5837 5834 5832 5829
5836 5839 5842 5845 5848 5850 5853 5856 5858 5860 5861 5862 5862 5863 5864 5865 5865 5866 5866 5866 5865 5864 5864 5863 5862 5861 5860 5858 5857 5855 5855 5853 5851 5850 5848 5846 5844 5841 5838 5836 5833 5830 5827
5832 5835 5839 5841 5845 5848 5851 5853 5855 5857 5859 5859 5860 5861 5862 5862 5863 5863 5863 5863 5863 5862 5861 5860 5859 5858 5857 5856 5854 5852 5852 5851 5849 5848 5846 5844 5841 5839 5836 5834 5831 5828 5825
5828 5831 5834 5838 5841 5845 5849 5850 5853 5854 5856 5856 5857 5858 5859 5859 5860 5860 5860 5860 5860 5860 5859 5858 5857 5856 5854 5853 5852 5850 5849 5848 5846 5845 5843 5842 5839 5837 5835 5832 5829 5825 5823
5823 5827 5832 5834 5837 5840 5845 5846 5850 5851 5852 5853 5854 5855 5856 5857 5857 5858 5858 5858 5858 5857 5856 5855 5854 5853 5852 5851 5849 5847 5846 5845 5844 5842 5841 5839 5836 5834 5832 5829 5826 5823 5820
5817 5822 5826 5830 5833 5836 5840 5842 5846 5848 5849 5851 5851 5852 5853 5854 5854 5855 5856 5856 5856 5855 5854 5853 5851 5850 5849 5848 5847 5844 5843 5842 5841 5839 5837 5835 5833 5831 5828 5826 5822 5820 5816
5814 5816 5820 5824 5827 5832 5836 5839 5841 5844 5846 5847 5848 5850 5851 5851 5851 5852 5853 5853 5853 5852 5851 5850 5848 5846 5845 5845 5844 5842 5840 5838 5837 5835 5833 5832 5830 5828 5825 5822 5819 5816 5813
5807 5811 5816 5821 5824 5826 5830 5834 5836 5839 5841 5843 5845 5847 5848 5848 5848 5849 5849 5849 5849 5848 5847 5846 5845 5843 5842 5841 5840 5839 5837 5835 5833 5831 5830 5828 5826 5823 5821 5818 5816 5812 5809
5799 5804 5809 5815 5819 5822 5825 5828 5831 5834 5837 5839 5841 5843 5844 5844 5845 5845 5845 5845 5844 5843 5843 5842 5841 5840 5838 5837 5836 5834 5833 5831 5829 5827 5825 5823 5821 5819 5816 5814 5812 5809 5806
5792 5796 5801 5806 5813 5816 5820 5823 5825 5828 5832 5834 5836 5838 5839 5839 5840 5841 5841 5840 5839 5839 5837 5836 5836 5835 5834 5832 5831 5830 5828 5826 5824 5822 5820 5817 5815 5813 5811 5808 5806 5803 5800
5781 5788 5793 5801 5806 5810 5814 5817 5819 5822 5825 5828 5829 5832 5833 5834 5834 5835 5836 5835 5835 5834 5833 5832 5830 5829 5828 5827 5826 5824 5822 5821 5819 5816 5814 5812 5810 5807 5804 5802 5799 5797 5795
5776 5781 5786 5794 5799 5803 5807 5811 5812 5815 5818 5821 5823 5825 5826 5827 5828 5829 5830 5829 5829 5828 5828 5827 5826 5824 5822 5821 5819 5817 5815 5814 5812 5810 5808 5805 5803 5800 5798 5795 5793 5791 5788
5767 5773 5778 5785 5790 5795 5800 5805 5808 5809 5813 5815 5816 5818 5819 5820 5821 5822 5823 5823 5822 5822 5821 5820 5819 5818 5816 5814 5812 5810 5809 5807 5805 5802 5800 5798 5796 5793 5791 5789 5785 5783 5781
5751 5760 5770 5778 5785 5790 5794 5798 5801 5803 5805 5807 5809 5810 5812 5813 5813 5814 5815 5815 5815 5815 5814 5813 5812 5810 5809 5807 5805 5803 5801 5800 5798 5795 5793 5790 5788 5785 5783 5780 5777 5776 5774
5748 5752 5763 5769 5775 5779 5783 5788 5791 5793 5796 5799 5801 5803 5804 5805 5804 5805 5805 5805 5805 5805 5805 5804 5803 5802 5801 5799 5798 5796 5794 5793 5790 5787 5784 5782 5779 5777 5775 5772 5770 5767 5765
5727 5742 5752 5761 5766 5770 5775 5779 5782 5784 5788 5791 5792 5794 5795 5796 5796 5795 5795 5795 5793 5793 5794 5794 5794 5794 5793 5790 5788 5787 5786 5784 5781 5779 5777 5775 5771 5769 5766 5763 5761 5758 5756
5724 5737 5745 5752 5757 5762 5766 5771 5775 5779 5781 5784 5785 5786 5786 5788 5785 5783 5784 5783 5781 5781 5784 5784 5784 5784 5782 5782 5781 5778 5775 5774 5773 5771 5767 5765 5762 5759 5756 5754 5752 5749 5746
5715 5714 5733 5742 5748 5752 5756 5761 5765 5771 5774 5776 5777 5775 5777 5778 5774 5775 5773 5773 5773 5773 5773 5773 5773 5771 5772 5772 5771 5770 5767 5765 5764 5762 5759 5755 5752 5748 5746 5743 5740 5738 5735
5711 5715 5723 5726 5735 5743 5749 5752 5756 5759 5763 5766 5767 5766 5765 5765 5766 5765 5764 5762 5765 5765 5764 5765 5765 5764 5764 5762 5760 5759 5757 5754 5752 5750 5748 5744 5742 5736 5734 5729 5727 5725 5723
Wind_Speed
17 16 15 14 15 15 14 14 14 12 10 10 9 8 7 7 6 6 6 5 5 5 6 7 8 9 9 9 7 7 6 7 8 10 12 14 15 14 16 16 18 19 19
17 17 16 16 17 16 16 16 15 13 11 10 8 7 7 6 5 4 3 3 4 5 6 7 8 8 9 9 8 6 6 8 10 11 13 15 15 15 15 17 15 15 15
18 18 17 17 17 17 17 17 15 13 12 10 8 7 6 5 4 3 1 1 3 4 6 7 8 8 7 7 7 5 7 9 12 14 16 15 14 14 16 18 17 16 15
19 20 20 19 17 18 18 17 15 14 11 10 8 6 5 5 5 4 2 1 2 4 5 7 8 9 6 6 4 4 6 9 12 16 17 16 15 16 18 20 18 17 19
21 21 21 21 20 18 18 17 15 13 11 9 8 7 7 7 6 5 4 3 3 4 6 8 8 9 7 6 3 3 5 8 11 16 18 18 17 18 19 20 19 20 19
22 22 23 22 21 20 19 17 16 13 11 9 8 8 8 8 7 7 6 5 5 6 8 9 9 9 10 7 4 3 5 7 10 14 15 18 19 21 21 22 23 23 23
24 24 24 24 23 22 21 19 17 15 11 9 8 8 8 8 8 7 7 7 7 8 9 10 9 10 11 9 5 5 6 7 10 13 15 17 19 21 23 24 24 25 26
24 26 25 25 25 23 22 21 19 15 12 10 8 7 7 7 7 8 8 9 9 9 11 11 10 11 12 10 8 8 8 9 12 13 14 17 18 19 21 23 25 25 25
25 27 28 28 27 26 25 24 20 16 13 10 8 5 5 6 7 9 9 9 10 10 12 11 11 11 12 10 10 12 10 11 12 14 16 17 18 19 20 21 23 24 25
29 30 30 30 29 28 28 25 21 18 15 12 8 6 5 5 6 7 9 10 11 12 13 12 12 12 13 12 13 14 13 13 14 15 17 18 19 21 21 21 23 24 26
31 32 33 31 31 31 29 25 21 20 18 13 10 7 5 5 7 8 9 10 11 13 14 14 13 13 13 14 14 16 15 15 16 17 18 19 20 21 22 23 23 25 27
30 31 35 34 34 33 30 26 23 20 17 14 11 8 6 7 8 9 9 11 13 14 15 15 14 15 14 14 14 17 17 16 18 19 19 20 21 22 24 24 25 25 27
35 36 37 36 36 34 32 29 25 21 18 15 12 8 8 7 8 10 11 13 15 15 15 15 16 17 16 16 16 17 18 18 20 21 22 22 23 23 24 25 26 25 26
38 36 40 40 38 35 33 30 27 23 21 19 15 13 10 8 8 11 14 16 17 18 18 17 18 18 19 19 19 19 20 21 21 23 23 24 24 24 26 27 26 26 26
43 41 40 41 39 37 34 33 30 27 24 22 19 17 14 13 12 14 17 19 20 20 20 21 22 21 21 22 22 22 22 23 23 24 25 24 25 26 28 29 28 27 27
43 42 42 43 41 39 36 34 32 30 29 26 23 22 19 19 20 19 19 23 23 22 22 23 24 25 24 24 24 25 25 25 26 27 28 28 29 29 30 31 29 29 28
46 45 44 44 43 40 37 36 34 34 32 30 28 26 23 22 20 24 24 25 25 25 26 25 26 27 27 28 28 26 27 28 29 29 30 30 32 32 32 32 30 30 29
51 47 46 45 43 42 40 40 38 36 35 34 33 30 28 27 27 25 26 27 29 29 27 28 28 29 30 29 30 30 30 31 31 31 32 33 33 33 32 32 31 30 31
57 51 48 48 47 45 45 43 41 39 39 37 36 35 35 34 34 31 29 29 29 33 33 32 33 32 32 31 31 32 33 33 33 33 33 34 33 32 33 33 32 32 33
66 58 52 52 48 46 44 43 43 40 40 40 39 41 41 39 38 37 35 34 34 36 36 37 38 37 35 34 34 34 36 36 36 35 35 35 34 33 34 33 33 34 34
44 64 59 53 48 46 44 45 46 44 43 44 43 44 43 43 44 42 42 44 45 44 44 44 42 41 39 38 36 37 37 38 38 38 38 38 38 37 37 37 36 37 37
66 56 65 59 54 52 50 51 50 49 47 48 47 48 49 48 48 49 49 49 50 49 48 46 45 43 40 39 38 41 40 40 41 41 40 40 40 39 39 40 39 38 38
47 67 67 62 57 57 56 56 55 53 52 52 52 51 51 52 52 54 55 51 55 56 53 50 48 45 43 42 42 42 41 42 43 44 44 43 42 41 41 42 41 40 41
50 52 60 62 60 59 58 56 55 54 52 52 52 53 52 56 59 59 59 60 50 50 48 52 53 53 45 47 49 42 40 42 44 45 45 46 44 44 44 44 44 43 42
42 52 60 67 67 62 56 54 54 55 47 49 48 54 56 46 31 31 27 33 38 40 43 45 48 46 42 41 43 44 44 44 45 45 45 45 46 48 47 46 47 47 47
46 41 54 54 54 56 55 51 53 52 52 40 41 46 47 33 33 32 32 30 35 34 34 35 34 35 39 40 43 44 45 46 48 50 50 50 46 48 49 51 51 51 51
Wind_Direction
210 208 207 196 191 186 177 173 168 167 170 167 161 155 149 139 133 127 119 101 75 54 40 27 20 11 11 12 18 34 42 43 22 3 350 342 343 342 334 328 324 323 324
215 214 208 198 195 189 179 176 172 174 174 171 168 164 159 152 146 140 124 85 52 42 39 30 21 16 18 22 27 36 46 28 16 359 343 341 345 343 346 359 360 3 4
216 216 212 205 200 190 182 177 177 179 176 174 177 175 175 171 171 171 161 56 35 29 26 21 21 18 17 17 21 35 31 24 13 357 346 345 350 357 5 12 14 14 8
215 218 212 209 204 193 184 180 182 179 177 180 184 190 198 205 213 220 240 295 357 8 7 3 3 6 1 3 15 29 26 15 14 11 2 356 1 11 13 13 12 11 10
218 217 217 208 201 195 188 184 183 182 181 186 193 206 214 220 226 233 249 280 327 345 345 351 350 358 351 345 356 4 13 13 6 6 11 11 13 16 15 12 11 11 8
221 212 212 206 199 192 189 185 186 186 184 184 198 212 222 227 236 243 258 279 304 323 329 330 341 345 343 328 312 320 340 349 356 3 7 13 16 15 13 10 7 6 3
220 211 207 201 195 189 187 188 187 180 181 187 203 214 223 231 240 251 264 278 295 311 321 327 334 338 336 319 294 292 319 331 339 352 359 6 11 11 11 8 3 360 355
215 206 204 198 192 188 189 189 182 184 181 179 184 202 218 232 244 256 267 278 288 301 315 317 322 330 331 315 291 286 305 319 330 339 347 358 3 7 7 6 2 358 352
212 204 200 196 192 190 191 187 188 188 185 178 176 186 206 229 241 250 260 272 281 290 304 308 309 316 322 309 296 287 294 306 317 326 339 348 352 357 360 359 357 356 354
207 201 199 197 196 193 193 191 192 193 192 182 181 190 203 227 243 258 264 273 279 289 295 298 303 306 313 307 300 295 293 302 311 320 330 337 343 348 349 350 353 354 352
205 203 197 199 196 195 197 196 199 199 197 192 187 198 214 245 252 258 265 276 283 288 289 291 294 301 308 305 299 298 296 299 308 315 320 329 336 336 336 342 348 350 347
205 204 202 199 198 197 202 199 203 204 202 199 200 205 233 254 264 272 279 281 287 291 290 289 292 297 302 302 300 299 297 294 301 307 314 320 325 327 330 332 339 343 343
206 203 203 201 202 202 206 203 207 210 210 211 210 220 240 253 266 284 288 287 289 294 299 297 292 293 302 306 300 297 296 294 297 304 310 315 317 321 322 325 331 334 337
209 205 204 203 203 205 208 210 211 214 219 224 229 239 240 257 273 283 288 289 288 290 293 295 293 295 296 301 305 305 299 295 299 306 312 314 315 314 315 320 325 329 330
203 208 208 207 206 206 209 214 217 221 226 229 235 243 247 256 267 280 282 283 283 285 291 295 297 299 300 298 299 302 304 306 306 308 311 314 315 313 316 317 322 325 327
204 204 208 210 210 212 213 217 221 227 230 234 240 248 254 261 274 282 287 281 277 280 287 291 295 298 299 299 299 302 305 305 305 306 308 310 312 314 315 317 319 323 324
204 206 207 210 211 213 218 223 225 230 235 241 243 248 257 267 265 282 279 279 273 276 280 287 292 293 294 296 298 299 300 303 305 306 306 308 309 312 314 316 317 321 322
201 206 206 212 214 216 220 228 231 235 238 243 247 252 255 263 267 275 275 279 277 275 279 283 287 290 291 293 295 296 297 297 298 300 304 304 306 310 310 312 314 316 317
203 207 208 214 218 220 224 227 230 233 238 241 247 253 260 264 266 274 270 275 280 277 275 282 286 285 287 289 290 292 293 294 297 299 300 302 303 306 308 309 310 313 313
209 209 210 212 218 220 224 229 234 234 238 243 248 256 263 265 271 275 271 270 276 279 279 280 282 284 285 286 289 291 294 295 297 298 298 298 299 301 302 304 309 309 310
208 206 211 214 219 224 229 232 234 235 237 245 250 258 262 266 271 271 275 275 277 280 276 277 279 279 283 283 286 290 292 293 293 293 296 297 300 303 304 305 306 306 306
216 216 216 217 219 224 227 232 235 237 241 249 254 259 264 268 269 271 274 275 273 274 275 273 276 274 277 281 286 289 289 290 292 293 294 296 298 298 298 300 300 302 301
234 215 216 218 220 225 228 232 235 239 247 255 260 263 267 269 270 271 270 272 278 274 273 272 274 274 273 274 284 285 286 289 291 293 294 295 294 293 295 298 298 298 298
210 211 218 219 222 225 229 233 237 244 250 259 264 267 268 270 269 269 273 272 277 271 270 272 268 265 267 274 281 277 280 285 289 291 292 293 291 292 291 293 295 295 294
213 212 217 221 226 228 229 234 240 248 256 263 269 271 274 268 269 258 297 269 266 271 275 273 270 271 271 271 274 279 281 284 286 289 287 286 290 293 292 294 295 292 292
223 216 210 225 220 241 242 242 246 248 255 260 265 262 275 247 272 274 283 276 275 271 273 268 267 272 274 276 278 280 284 286 288 287 287 289 292 294 293 293 293 291 288